Location: Newark
(43.0000°N, 1.6781°W)
Time: 00:21:01
(UTC+00:00)

Vanguard 1 Rocket - Pass Details

Date: 21 April 2021
Orbit: 652 x 4224 km, 34.3° (Epoch: 06 May)

Event Time Altitude Azimuth Distance (km) Brightness Sun altitude
Rises 11:20:53 0° 213° (SSW) 5,157 11.5 57.6°
Reaches altitude 10° 11:26:28 10° 195° (SSW) 3,447 10.9 57.9°
Maximum altitude 11:30:47 15° 162° (SSE) 2,540 10.5 58.1°
Drops below altitude 10° 11:34:09 10° 127° (SE) 2,555 10.2 58.3°
Sets 11:37:18 0° 103° (ESE) 3,210 10.4 58.4°
